Home > Weather > Pueblo > Past weeks

Flag for U.S.A. Weather for the Past 2 Weeks in Pueblo, Colorado, U.S.A.

Now
30 °F

Clear.


Feels Like: 25 °F
Forecast: 26 / 69 °F
Wind: 5 mph from Southeast

Location: Pueblo Memorial Airport

Current Time: Feb 13, 2016 at 4:09:50 AM

Latest Report: Feb 13, 2016 at 2:53 AM


Visibility: 10 mi

Pressure: 30.17 "Hg (25.21 "Hg at 1430m altitude)

Humidity: 82%

Dew point: 25 °F

Location of PuebloLocation

Historic Weather in Pueblo — Graph

°F

Pueblo Temperature Yesterday

Maximum temperature yesterday: 65 °F (at 2:53 PM)
Minimum temperature yesterday: 26 °F (at 6:53 AM)
Average temperature yesterday: 45 °F

High & Low Weather Summary for the Past Weeks

 TemperatureHumidityPressure
High75 °F (Feb 10, 1:53 PM)92% (Jan 31, 8:02 AM)30.52 "Hg (Jan 31, 8:02 AM)
Low2 °F (Feb 4, 3:53 AM)6% (Feb 10, 3:53 PM)29.33 "Hg (Jan 30, 2:53 PM)
Average35 °F57%30.10 "Hg
* Reported Jan 29 2:53 AM — Feb 13 2:53 AM, Pueblo, Weather by CustomWeather, © 2016

Note: Actual official high and low records may vary slightly from our data, if they occured in-between our weather recording intervals... More about our weather records

Advertising

Pueblo Weather History for the Previous 24 Hours

 ConditionsComfort  
Time TempWeatherWind HumidityBarometerVisibility
2:53 AM
Sat, Feb 13
30 °FClear.5 mph82%30.17 "Hg10 mi
1:53 AM32 °FClear.No wind79%30.19 "Hg10 mi
12:53 AM32 °FClear.5 mph79%30.22 "Hg10 mi
11:53 PM
Fri, Feb 12
34 °FClear.7 mph76%30.23 "Hg10 mi
10:53 PM38 °FClear.7 mph68%30.24 "Hg10 mi
9:53 PM44 °FClear.13 mph58%30.22 "Hg10 mi
8:53 PM50 °FClear.10 mph46%30.21 "Hg10 mi
7:53 PM48 °FClear.13 mph52%30.22 "Hg10 mi
6:53 PM50 °FClear.12 mph48%30.22 "Hg10 mi
5:53 PM53 °FClear.10 mph43%30.20 "Hg10 mi
4:53 PM63 °FSunny.12 mph26%30.16 "Hg10 mi
3:53 PM65 °FSunny.13 mph23%30.14 "Hg10 mi
2:53 PM65 °FSunny.13 mph23%30.12 "Hg10 mi
1:53 PM63 °FSunny.8 mph24%30.16 "Hg10 mi
12:53 PM60 °FSunny.No wind25%30.21 "Hg10 mi
11:53 AM56 °FSunny.3 mph30%30.27 "Hg10 mi
10:53 AM52 °FSunny.No wind37%30.29 "Hg10 mi
9:53 AM46 °FSunny.3 mph50%30.32 "Hg10 mi
8:53 AM40 °FSunny.No wind65%30.31 "Hg10 mi
7:53 AM32 °FSunny.3 mph75%30.33 "Hg10 mi
6:53 AM26 °FSunny.No wind81%30.32 "Hg10 mi
5:53 AM29 °FClear.No wind79%30.28 "Hg10 mi
4:53 AM29 °FClear.No wind79%30.23 "Hg10 mi
Weather by CustomWeather, © 2016

See weather overviewHow to use our weather pages